Location: Oakhurst
(33.6448°N, 111.9543°W)
Time: 20:47:42
(UTC+00:00)

FO-99 - Pass Details

Date: 03 August 2021
Orbit: 471 x 503 km, 97.2° (Epoch: 25 September)

Event Time Altitude Azimuth Distance (km) Brightness Sun altitude
Exits shadow 03:30:37 - 175° (S) 1,939 ? -12.7°
Reaches altitude 10° 03:31:10 10° 175° (S) 1,709 ? -12.8°
Maximum altitude 03:34:50 69° 259° (W) 544 ? -13.5°
Drops below altitude 10° 03:38:32 10° 343° (NNW) 1,721 ? -14.1°
Sets 03:40:39 0° 346° (NNW) 2,608 ? -14.5°
